Location: Dampvalley
(47.9094°N, 6.1967°E)
Time: 16:15:29
(UTC+00:00)

SWAS - Pass Details

Date: 05 March 2021
Orbit: 578 x 593 km, 69.9° (Epoch: 15 April)

Event Time Altitude Azimuth Distance (km) Brightness Sun altitude
Rises 04:50:06 0° 330° (NNW) 2,839 7.7 -13.9°
Reaches altitude 10° 04:52:20 10° 331° (NNW) 1,934 6.9 -13.5°
Maximum altitude 04:56:41 89° 58° (ENE) 600 4.5 -12.8°
Drops below altitude 10° 05:01:00 10° 152° (SSE) 1,920 7.4 -12.1°
Sets 05:03:13 0° 152° (SSE) 2,817 8.3 -11.7°
